Weather History for Sidney-Richland, MT

Change the Weather History Date:

Thursday, May 2, 2013

  Actual Average Record
Temperature  
Mean Temperature 42 °F -  
Max Temperature 59 °F 66 °F 90 °F (1982)
Min Temperature 26 °F 34 °F 19 °F (1954)
Degree Days  
Heating Degree Days 22    
Moisture  
Dew Point 19 °F    
Average Humidity 43    
Maximum Humidity 74    
Minimum Humidity 20    
Precipitation  
Precipitation 0.00 in - - ()
Sea Level Pressure  
Sea Level Pressure 30.53 in    
Wind  
Wind Speed 3 mph (SSE)    
Max Wind Speed 12 mph    
Max Gust Speed -    
Visibility 9 miles    
Events      
Averages and records for this station are not official NWS values.
T = Trace of Precipitation, MM = Missing Value Source: NWS Daily Summary

Daily Weather History Graph

Daily Weather History Graph

Search for Another Location

Airport:

Trip Planner

Search our weather history database for the weather conditions in past years. The results will help you decide how hot, cold, wet, or windy it might be!

Date:

Astronomy

May. 02, 2013 Rise Set
Actual Time 5:37 AM MDT 8:11 PM MDT
Civil Twilight 5:02 AM MDT 8:45 PM MDT
Nautical Twilight 4:18 AM MDT 9:29 PM MDT
Astronomical Twilight 3:28 AM MDT 10:21 PM MDT
Moon 1:58 AM MDT (5/2) 12:32 PM MDT (5/2)
Length of Visible Light 15h 43m
Length of Day
14h 33m
Waning Gibbous, 47% of the Moon is Illuminated
May 2
Waning Gibbous
May 9
New
May 17
First Quarter
May 24
Full
May 31
Last Quarter

Hourly Weather History & Observations

Time (MDT) Temp. Windchill Dew Point Humidity Pressure Visibility Wind Dir Wind Speed Gust Speed Precip Events Conditions
12:15 AM 26.6 °F 22.6 °F 15.8 °F 64% 30.64 in 10.0 mi NW 3.5 mph - N/A   Scattered Clouds
12:35 AM 28.4 °F 24.6 °F 17.6 °F 64% 30.64 in 10.0 mi NW 3.5 mph - N/A   Scattered Clouds
12:55 AM 28.4 °F 24.6 °F 17.6 °F 64% 30.63 in 10.0 mi NW 3.5 mph - N/A   Scattered Clouds
1:15 AM 28.4 °F - 17.6 °F 64% 30.63 in 10.0 mi Calm Calm - N/A   Scattered Clouds
1:35 AM 28.4 °F 21.2 °F 17.6 °F 64% 30.64 in 10.0 mi NNW 6.9 mph - N/A   Mostly Cloudy
1:55 AM 30.2 °F 25.4 °F 19.4 °F 64% 30.64 in 10.0 mi NNW 4.6 mph - N/A   Overcast
2:15 AM 30.2 °F 26.7 °F 17.6 °F 60% 30.63 in 10.0 mi NNW 3.5 mph - N/A   Overcast
2:35 AM 30.2 °F - 19.4 °F 64% 30.63 in 10.0 mi Calm Calm - N/A   Overcast
2:55 AM 28.4 °F 24.6 °F 19.4 °F 69% 30.63 in 10.0 mi North 3.5 mph - N/A   Overcast
3:35 AM 30.2 °F - 19.4 °F 64% 30.63 in 10.0 mi Calm Calm - N/A   Overcast
3:55 AM 30.2 °F - 19.4 °F 64% 30.64 in 10.0 mi Calm Calm - N/A   Overcast
4:15 AM 28.4 °F - 19.4 °F 69% 30.64 in 10.0 mi Calm Calm - N/A   Overcast
4:35 AM 26.6 °F - 17.6 °F 69% 30.64 in 10.0 mi Calm Calm - N/A   Mostly Cloudy
4:55 AM 26.6 °F 22.6 °F 17.6 °F 69% 30.64 in 10.0 mi North 3.5 mph - N/A   Mostly Cloudy
5:15 AM 26.6 °F - 19.4 °F 74% 30.64 in 10.0 mi Calm Calm - N/A   Overcast
5:35 AM 26.6 °F - 19.4 °F 74% 30.64 in 10.0 mi Calm Calm - N/A   Overcast
5:55 AM 28.4 °F 22.2 °F 19.4 °F 69% 30.64 in 10.0 mi West 5.8 mph - N/A   Overcast
6:15 AM 30.2 °F - 21.2 °F 69% 30.63 in 10.0 mi Calm Calm - N/A   Overcast
6:55 AM 30.2 °F - 21.2 °F 69% 30.64 in 10.0 mi Calm Calm - N/A   Partly Cloudy
7:15 AM 33.8 °F - 21.2 °F 60% 30.64 in 10.0 mi Calm Calm - N/A   Clear
7:35 AM 35.6 °F - 19.4 °F 52% 30.64 in 10.0 mi Calm Calm - N/A   Clear
7:55 AM 37.4 °F 34.9 °F 21.2 °F 52% 30.64 in 10.0 mi SE 3.5 mph - N/A   Clear
8:15 AM 39.2 °F - 19.4 °F 45% 30.64 in 10.0 mi Calm Calm - N/A   Clear
8:35 AM 39.2 °F 37.0 °F 21.2 °F 49% 30.63 in 10.0 mi SSE 3.5 mph - N/A   Clear
9:15 AM 44.6 °F 40.7 °F 21.2 °F 39% 30.62 in 10.0 mi South 6.9 mph - N/A   Clear
9:55 AM 46.4 °F 42.4 °F 19.4 °F 34% 30.61 in 10.0 mi South 8.1 mph - N/A   Clear
10:15 AM 48.2 °F - 19.4 °F 32% 30.61 in 10.0 mi South 5.8 mph - N/A   Clear
10:35 AM 48.2 °F - 19.4 °F 32% 30.60 in 10.0 mi SSW 3.5 mph - N/A   Clear
11:35 AM 51.8 °F - 19.4 °F 28% 30.58 in 10.0 mi SSE 4.6 mph - N/A   Clear
11:55 AM 50.0 °F - 17.6 °F 28% 30.57 in 10.0 mi Calm Calm - N/A   Clear
12:15 PM 51.8 °F - 19.4 °F 28% 30.56 in 10.0 mi West 4.6 mph - N/A   Clear
12:35 PM 51.8 °F - 19.4 °F 28% 30.54 in 10.0 mi Calm Calm - N/A   Clear
1:15 PM 53.6 °F - 17.6 °F 24% 30.52 in 10.0 mi Calm Calm - N/A   Clear
1:35 PM 55.4 °F - 19.4 °F 25% 30.51 in 8.0 mi SSW 6.9 mph - N/A   Clear
1:55 PM 55.4 °F - 19.4 °F 25% 30.50 in 10.0 mi South 10.4 mph - N/A   Clear
2:15 PM 55.4 °F - 19.4 °F 25% 30.49 in 10.0 mi SW 11.5 mph - N/A   Clear
2:55 PM 55.4 °F - 19.4 °F 25% 30.48 in 10.0 mi South 4.6 mph - N/A   Clear
3:15 PM 57.2 °F - 19.4 °F 23% 30.47 in 10.0 mi ESE 6.9 mph - N/A   Clear
3:35 PM 57.2 °F - 19.4 °F 23% 30.46 in 9.0 mi ESE 8.1 mph - N/A   Clear
3:55 PM 55.4 °F - 17.6 °F 23% 30.45 in 2.0 mi WSW 6.9 mph - N/A   Scattered Clouds
4:15 PM 57.2 °F - 17.6 °F 21% 30.44 in 10.0 mi Calm Calm - N/A   Partly Cloudy
4:35 PM 57.2 °F - 17.6 °F 21% 30.43 in 10.0 mi ESE 3.5 mph - N/A   Clear
4:55 PM 57.2 °F - 19.4 °F 23% 30.43 in 5.0 mi South 4.6 mph - N/A   Clear
5:15 PM 57.2 °F - 19.4 °F 23% 30.42 in 4.0 mi SSE 3.5 mph - N/A   Partly Cloudy
5:35 PM 59.0 °F - 19.4 °F 22% 30.42 in 3.0 mi Calm Calm - N/A   Partly Cloudy
6:15 PM 59.0 °F - 17.6 °F 20% 30.40 in 5.0 mi ENE 8.1 mph - N/A   Clear
6:35 PM 59.0 °F - 17.6 °F 20% 30.40 in 10.0 mi ENE 5.8 mph - N/A   Clear
7:15 PM 57.2 °F - 17.6 °F 21% 30.40 in 10.0 mi ESE 8.1 mph - N/A   Clear
7:35 PM 55.4 °F - 17.6 °F 23% 30.40 in 10.0 mi ESE 6.9 mph - N/A   Clear
7:55 PM 53.6 °F - 19.4 °F 26% 30.40 in 10.0 mi ESE 6.9 mph - N/A   Clear
8:15 PM 51.8 °F - 19.4 °F 28% 30.39 in 10.0 mi East 6.9 mph - N/A   Clear
8:35 PM 48.2 °F - 19.4 °F 32% 30.39 in 10.0 mi ESE 6.9 mph - N/A   Clear
8:55 PM 46.4 °F - 19.4 °F 34% 30.39 in 5.0 mi Calm Calm - N/A   Clear
9:15 PM 46.4 °F - 19.4 °F 34% 30.39 in 9.0 mi Calm Calm - N/A   Clear
9:35 PM 42.8 °F - 19.4 °F 39% 30.39 in 10.0 mi Calm Calm - N/A   Clear
9:55 PM 39.2 °F - 19.4 °F 45% 30.39 in 10.0 mi Calm Calm - N/A   Clear
10:15 PM 39.2 °F 37.0 °F 19.4 °F 45% 30.39 in 10.0 mi North 3.5 mph - N/A   Clear
10:35 PM 39.2 °F 35.9 °F 19.4 °F 45% 30.39 in 10.0 mi North 4.6 mph - N/A   Clear
10:55 PM 42.8 °F 40.1 °F 21.2 °F 42% 30.39 in 10.0 mi NE 4.6 mph - N/A   Clear
11:15 PM 42.8 °F 40.1 °F 19.4 °F 39% 30.39 in 10.0 mi SE 4.6 mph - N/A   Clear
11:35 PM 42.8 °F 37.5 °F 21.2 °F 42% 30.38 in 10.0 mi SE 9.2 mph - N/A   Clear
11:55 PM 42.8 °F 38.6 °F 21.2 °F 42% 30.38 in 10.0 mi SSE 6.9 mph - N/A   Clear